sat.trackr.live / text

‹ back to catalog

SITRO-AIS 40

NORAD 61776 · 2024-199AT

PAYLOAD ACTIVE UNKNOWN

§ Identity

Operator
Country
CIS
Launch date
2024-11-04
Launch site
VOSTO
Launch vehicle
Mass (kg)
RCS (m²)

External: N2YO · Heavens-Above · Gunter

§ Orbital elements

Epoch: 2026-09-22T21:30:21.677472Z

Period
91.50 min
Inclination
97.2672°
Eccentricity
0.0001042
Mean motion
15.73786088 rev/d
Perigee alt
347.4 km
Apogee alt
348.8 km
Semi-major
6,726.2 km
B*
6.4764e-4
RAAN
145.9235°
Arg perigee
259.0407°
Mean anomaly
101.0741°
Rev number
15,292

§ Raw data

SITRO-AIS 401 61776U 24199AT  26265.89608423  .00091801  00000+0  64764-3 0  99912 61776  97.2672 145.9235 0001042 259.0407 101.0741 15.73786088152921

JSON: /api/v1/satellites/61776 · /tle

For live sub-satellite position, see the globe view (requires WebGL).

§ Visibility from observer

Set your observer location to see the next 7 days of passes ≥ 10°. The values pass through the URL so the page stays shareable.

No JS? Fill the form by hand. The geolocation button needs JavaScript.

§ Radio — SatNOGS DB

ModeDescriptionDownlinkUplink
GMSK USP Mode U - GMSK2k4 - USP 401.085 MHz

1 transmitter · refreshed weekly from db.satnogs.org